"Pseudo-MPEC" for GG0408

Created 2023 Sep 27 1:22:10 UT using Find_Orb

Click here for an explanation of pseudo-MPECs

 
 Astrometry: 
     GG0408 *MC2023 09 17oFAstrometryN)Credacted;M6e^Gyclickb#G/-kqGgbmherejMQ62
     GG0408  MC2023 09 17kA6x66?4S/yl1RT4STwayobg1U_O3@A#rforWmSP'explanationQ62

Station data:
(Q62) iTelescope Observatory, Siding Spring  (S31.273286 E149.064420)
   Australia/NSW.  Observers H. Sato, T. Prystavski, M. Mattiazzo, A. Pearce,
   F. D. Romanov. 0.51-m f/6.8 astrograph + CCD + f/4.5 focal reducer0.43-m
   f/6.8 astrograph + CCD + focal reducer0.43-m f/6.8 astrograph + CCD0.10-m
   f/5 astrograph + CCD0.127-m f/5.6 refractor + CCD0.50-m f/6.8 reflector +
   CCD0.30-m f/9 reflector + CCD.

Orbital elements:  GG0408
   Perihelion 2023 Aug 10.33545 +/- 53 TT =  8:03:02 (JD 2460166.83545)
Epoch 2023 Sep 18.0 TT = JDT 2460205.5   Earth MOID: 0.2391      AutoNEOCP
M   3.77595760 +/- 27               (J2000 ecliptic)
n   0.09765940 +/- 0.208            Peri.  194.28258 +/- 80
a   4.67010507 +/- 6.64             Node   137.12866 +/- 42
e   0.7348373 +/- 0.293             Incl.   56.72155 +/- 17
P  10.09                   H 17.14  G  0.15   U 11.7  SR
q 1.23833749 +/- 0.434    Q 8.10187265 +/- 52.2
From 2 observations 2023 Sept. 17 (15.4 min); mean residual 0".01
Residuals in arcseconds: 
230917 Q62  .01-  .01-    230917 Q62  .01-  .01-    

Ephemerides (geocentric):
Date (UTC) HH   RA             Dec           delta  r     elong  mag " sig PA
---- --------  ------------   ------------  ------ ------ -----  --- --------
2023 09 27 01  06 02 02.460   -74 03 14.62  .96781 1.3864  89.4 19.5  29d 172
2023 09 27 02  06 02 06.312   -74 03 26.76  .96834 1.3867  89.4 19.5  29d 172
2023 09 27 03  06 02 10.145   -74 03 38.88  .96887 1.3869  89.4 19.5  29d 172
2023 09 27 04  06 02 13.959   -74 03 50.98  .96940 1.3871  89.4 19.5  29d 172
2023 09 27 05  06 02 17.754   -74 04 03.05  .96994 1.3874  89.4 19.5  29d 172
2023 09 27 06  06 02 21.531   -74 04 15.10  .97047 1.3876  89.4 19.5  29d 172
2023 09 27 07  06 02 25.288   -74 04 27.14  .97100 1.3879  89.4 19.5  29d 172
2023 09 27 08  06 02 29.027   -74 04 39.15  .97153 1.3881  89.4 19.5  29d 172
2023 09 27 09  06 02 32.747   -74 04 51.14  .97206 1.3883  89.3 19.5  29d 172
2023 09 27 10  06 02 36.447   -74 05 03.11  .97259 1.3886  89.3 19.5  29d 172
2023 09 27 11  06 02 40.130   -74 05 15.06  .97312 1.3888  89.3 19.6  29d 172
2023 09 27 12  06 02 43.793   -74 05 26.99  .97365 1.3891  89.3 19.6  29d 172
2023 09 27 13  06 02 47.438   -74 05 38.90  .97418 1.3893  89.3 19.6  29d 172
2023 09 27 14  06 02 51.064   -74 05 50.78  .97472 1.3895  89.3 19.6  29d 172
2023 09 27 15  06 02 54.671   -74 06 02.65  .97525 1.3898  89.3 19.6  29d 172
2023 09 27 16  06 02 58.259   -74 06 14.49  .97578 1.3900  89.3 19.6  29d 172
2023 09 27 17  06 03 01.829   -74 06 26.32  .97631 1.3903  89.3 19.6  29d 172
2023 09 27 18  06 03 05.380   -74 06 38.12  .97683 1.3905  89.3 19.6  29d 172
2023 09 27 19  06 03 08.912   -74 06 49.91  .97736 1.3907  89.2 19.6  29d 172
2023 09 27 20  06 03 12.426   -74 07 01.67  .97789 1.3910  89.2 19.6  29d 171
2023 09 27 21  06 03 15.921   -74 07 13.41  .97842 1.3912  89.2 19.6  29d 171
2023 09 27 22  06 03 19.397   -74 07 25.14  .97895 1.3915  89.2 19.6  29d 171
2023 09 27 23  06 03 22.855   -74 07 36.84  .97948 1.3917  89.2 19.6  29d 171
2023 09 28 00  06 03 26.294   -74 07 48.52  .98001 1.3919  89.2 19.6  29d 171
2023 09 28 01  06 03 29.715   -74 08 00.18  .98054 1.3922  89.2 19.6  29d 171
2023 09 28 02  06 03 33.117   -74 08 11.83  .98106 1.3924  89.2 19.6  29d 171
2023 09 28 03  06 03 36.501   -74 08 23.45  .98159 1.3927  89.2 19.6  29d 171
2023 09 28 04  06 03 39.865   -74 08 35.05  .98212 1.3929  89.2 19.6  29d 171
2023 09 28 05  06 03 43.212   -74 08 46.63  .98265 1.3932  89.2 19.6  29d 171
2023 09 28 06  06 03 46.540   -74 08 58.19  .98318 1.3934  89.1 19.6  29d 171
2023 09 28 07  06 03 49.849   -74 09 09.74  .98370 1.3936  89.1 19.6  29d 171
2023 09 28 08  06 03 53.140   -74 09 21.26  .98423 1.3939  89.1 19.6  29d 171
2023 09 28 09  06 03 56.412   -74 09 32.76  .98476 1.3941  89.1 19.6  29d 171
2023 09 28 10  06 03 59.666   -74 09 44.24  .98528 1.3944  89.1 19.6  29d 171
2023 09 28 11  06 04 02.902   -74 09 55.71  .98581 1.3946  89.1 19.6  29d 171
2023 09 28 12  06 04 06.119   -74 10 07.15  .98634 1.3949  89.1 19.6  29d 171
2023 09 28 13  06 04 09.318   -74 10 18.57  .98686 1.3951  89.1 19.6  29d 171
2023 09 28 14  06 04 12.498   -74 10 29.98  .98739 1.3953  89.1 19.6  29d 171
2023 09 28 15  06 04 15.660   -74 10 41.36  .98791 1.3956  89.1 19.6  29d 171
2023 09 28 16  06 04 18.803   -74 10 52.73  .98844 1.3958  89.1 19.6  29d 171
2023 09 28 17  06 04 21.928   -74 11 04.07  .98896 1.3961  89.0 19.6  29d 171
2023 09 28 18  06 04 25.035   -74 11 15.40  .98949 1.3963  89.0 19.6  29d 171
2023 09 28 19  06 04 28.124   -74 11 26.70  0.9900 1.3966  89.0 19.6  29d 171
2023 09 28 20  06 04 31.194   -74 11 37.99  0.9905 1.3968  89.0 19.6  29d 171
2023 09 28 21  06 04 34.246   -74 11 49.26  0.9911 1.3971  89.0 19.6  29d 171
2023 09 28 22  06 04 37.279   -74 12 00.51  0.9916 1.3973  89.0 19.6  29d 171
2023 09 28 23  06 04 40.294   -74 12 11.73  0.9921 1.3975  89.0 19.6  29d 171
2023 09 29 00  06 04 43.291   -74 12 22.94  0.9926 1.3978  89.0 19.6  29d 171